This is the latest recevied weather packets stored in our database for station/object KB3KBR-WX. If no packets are shown the sender has not sent any weather packets the latest 1 day(s).
| Time | Temp. | Humidity | Pressure | Rain* | Wind** | Luminosity | Snow |
|---|---|---|---|---|---|---|---|
| 1778001929 | 21.11° C | 56% | 1004.3 hPa | 0 mm | 1.79 m/s, 171° | - | - |
| 1778001269 | 21.11° C | 58% | 1004.1 hPa | 0 mm | 1.79 m/s, 157° | - | - |
| 1778000939 | 20.56° C | 58% | 1004.4 hPa | 0 mm | 1.79 m/s, 169° | - | - |
| 1778000642 | 20.56° C | 58% | 1004.5 hPa | 0 mm | 2.24 m/s, 168° | - | - |
| 1778000339 | 20.56° C | 58% | 1004.6 hPa | 0 mm | 2.24 m/s, 180° | - | - |
| 1778000043 | 20.56° C | 57% | 1004.3 hPa | 0 mm | 1.79 m/s, 180° | - | - |
| 1778000040 | 20.56° C | 57% | 1004.3 hPa | 0 mm | 1.79 m/s, 180° | - | - |
| 1777999709 | 20.56° C | 58% | 1004.4 hPa | 0 mm | 1.79 m/s, 169° | - | - |
| 1777999379 | 20° C | 59% | 1004.4 hPa | 0 mm | 2.24 m/s, 160° | - | - |
| 1777999049 | 20° C | 59% | 1004.4 hPa | 0 mm | 2.24 m/s, 175° | - | - |
| 1777998719 | 20° C | 59% | 1004.6 hPa | 0 mm | 2.24 m/s, 191° | - | - |
| 1777998419 | 20° C | 60% | 1004.7 hPa | 0 mm | 2.68 m/s, 168° | - | - |
| 1777998089 | 20° C | 61% | 1004.7 hPa | 0 mm | 3.13 m/s, 164° | - | - |
| 1777997789 | 19.44° C | 61% | 1004.9 hPa | 0 mm | 2.68 m/s, 173° | - | - |
| 1777997489 | 19.44° C | 62% | 1004.8 hPa | 0 mm | 2.68 m/s, 171° | - | - |
| 1777997189 | 18.89° C | 63% | 1004.9 hPa | 0 mm | 2.24 m/s, 169° | - | - |
| 1777996890 | 18.89° C | 63% | 1005 hPa | 0 mm | 2.24 m/s, 166° | - | - |
| 1777996589 | 18.89° C | 63% | 1005 hPa | 0 mm | 2.24 m/s, 180° | - | - |
| 1777996259 | 18.89° C | 63% | 1005 hPa | 0 mm | 2.24 m/s, 169° | - | - |
| 1777995959 | 19.44° C | 62% | 1004.9 hPa | 0 mm | 2.68 m/s, 173° | - | - |
| 1777995659 | 20° C | 62% | 1004.8 hPa | 0 mm | 2.24 m/s, 178° | - | - |
| 1777995329 | 20° C | 61% | 1004.6 hPa | 0 mm | 2.24 m/s, 172° | - | - |
| 1777994699 | 19.44° C | 62% | 1004.6 hPa | 0 mm | 2.68 m/s, 178° | - | - |
| 1777994399 | 20° C | 63% | 1004.3 hPa | 0 mm | 2.24 m/s, 179° | - | - |
| 1777994069 | 18.89° C | 66% | 1004.3 hPa | 0 mm | 2.24 m/s, 173° | - | - |
* Rain latest hour (hover to see other rain measurements)
** Current wind speed in m/s (hover to see current wind gust speed)